FENGYUN 3A

Last updated on Fri Jul 11 2025 00:02:20 GMT+0000 (Coordinated Universal Time)

1 32958U 08026A 25191.54122327 .00000047 00000+0 42787-4 0 9999 2 32958 98.6486 134.5469 0009458 38.3590 321.8257 14.19453171886934
UTC large
Height (km)
Speed (km/s)
/
Latitude / Longitude
Inclination (degrees)
Orbital Period (minutes)
Azimuth
Elevation
Range (km)
Doppler Factor

Next 0 passes for location: London (51.5072 / 0.1276)

Sorry there are no passes over London.